Regional Weather Roundup
Issued by NWS San Angelo, TX

Current Version | Previous Version | Text Only | Print | Product List | Glossary On
Versions: 1 2 3 4 5 6 7 8 9 10 11 12 13 14 15 16 17 18 19 20 21 22 23 24 25 26 27 28 29 30 31 32 33 34 35 36 37 38 39 40 41 42 43 44 45 46 47 48 49 50
000
ASUS44 KSJT 270510
RWRSJT
WEST CENTRAL TEXAS REGIONAL WEATHER ROUNDUP
NATIONAL WEATHER SERVICE SAN ANGELO TX
1200 AM CDT MON APR 27 2015

NOTE: "FAIR" INDICATES FEW OR NO CLOUDS BELOW 12,000 FEET WITH NO
SIGNIFICANT WEATHER AND/OR OBSTRUCTIONS TO VISIBILITY.

TXZ049-054-064>066-071>073-076>078-098-099-113-114-127-128-139-140-
154-155-168>170-270600
...LOCATIONS ACROSS WEST CENTRAL TEXAS...

CITY           SKY/WX    TMP DP  RH WIND       PRES   REMARKS
SAN ANGELO     MOCLDY    68  57  68 N21G30    29.67R
ABILENE        LGT RAIN  61  57  87 NW17      29.69R
DYESS AFB      CLOUDY    60  57  88 NW18      29.69F
JUNCTION       CLOUDY    63  60  90 CALM      29.63R
SWEETWATER     CLOUDY    59  55  85 NW13      29.81S
BROWNWOOD      LGT RAIN  63  61  94 E5        29.61R
COLEMAN        CLOUDY    63  61  93 N6        29.64R
SONORA         MOCLDY    68  36  30 NW7       29.73R
OZONA          MOCLDY    70  27  19 N13       29.75R
BRADY          CLEAR     64  59  82 S3        29.58F
$$

TEXAS PANHANDLE/OKLAHOMA PANHANDLE

CITY           SKY/WX    TMP DP  RH WIND       PRES   REMARKS
AMARILLO       CLOUDY    50  49  96 NE16      29.84R
BORGER         CLOUDY    51  49  92 NE15      29.85R
CANADIAN       LGT RAIN  53  51  95 E23G31    29.82F
DALHART        CLOUDY    47  45  93 NE18      29.88R WCI  40
DUMAS          CLOUDY    47  47  97 NE21      29.86S
GUYMON         NOT AVBL
HEREFORD       RAIN      51  50  98 MISG      29.86R
PAMPA          CLOUDY    50  49  95 NE17G23   29.84F
PERRYTON       CLOUDY    49  47  95 NE21G30   29.89F
$$

SOUTHERN PANHANDLE/SOUTH PLAINS/ROLLING PLAINS

CITY           SKY/WX    TMP DP  RH WIND       PRES   REMARKS
LUBBOCK        CLOUDY    53  51  93 NE13      29.77F
SNYDER         CLOUDY    58  52  80 N14       29.80S
CHILDRESS      PTCLDY    56  52  86 NE17G25   29.76R
SEMINOLE       PTCLDY    55  35  46 W10G22    29.78R
$$

PERMIAN BASIN

CITY           SKY/WX    TMP DP  RH WIND       PRES   REMARKS
MIDLAND        MOCLDY    63  33  32 W7        29.76S
ODESSA         MOCLDY    60  31  33 W6        29.76S
WINK           PTCLDY    57  31  37 W3        29.75R
$$

FAR WEST/SOUTHWEST MOUNTAINS/TRANS PECOS

CITY           SKY/WX    TMP DP  RH WIND       PRES   REMARKS
ALPINE         CLEAR     56  28  34 W5        29.89R
DRYDEN           N/A     73  28  18 NW26G37   29.70S
EL PASO        PTCLDY    57  35  43 W23G32    29.83F
FORT STOCKTON  PTCLDY    60  31  33 W12       29.79R
GUADALUPE PASS CLEAR     48  32  53 W29       29.84R WCI  40
MARFA          PTCLDY    52  28  40 NW7       29.87S
PECOS          MOCLDY    61  33  34 W14       29.76R
$$

DALLAS/FORT WORTH METROPLEX

CITY           SKY/WX    TMP DP  RH WIND       PRES   REMARKS
DFW AIRPORT    TSTM      72  65  78 NE10      29.67R
FTW MEACHAM    TSTM      71  62  73 E15G23    29.67R
DAL-EXECUTIVE  TSTM      74  65  73 NE8       29.67R
GRAND PRAIRIE  CLOUDY    73  67  83 E8        29.68S
ADDISON        CLOUDY    76  62  60 SE6G16    29.70R THUNDER
MESQUITE       CLOUDY    74  62  66 NE8G16    29.68R
LANCASTER      TSTM      73  65  76 N8        29.66R
$$

NORTH CENTRAL TEXAS

CITY           SKY/WX    TMP DP  RH WIND       PRES   REMARKS
SHRMAN/DENISON LGT RAIN  69  67  93 E6        29.73F
GAINESVILLE    CLOUDY    63  60  90 NE14      29.72F
BRIDGEPORT     TSTM      65  59  82 SE5G28    29.77R
DENTON         TSTM      71  60  68 NE20G28   29.66S
WAXAHACHIE     HVY RAIN  71  70  96 CALM      29.69R
GRANBURY         N/A     66  61  85 E14G21    29.68F
$$

WESTERN NORTH TEXAS

CITY           SKY/WX    TMP DP  RH WIND       PRES   REMARKS
WICHITA FALLS  PTCLDY    58  56  93 N9        29.71R
VERNON         CLOUDY    61  54  78 N26G33    29.73R
BRECKENRIDGE   LGT RAIN  64  61  91 E16G25    29.64R
COMANCHE       MOCLDY    62  62 100 E10       29.64F
$$

CENTRAL AND SOUTH CENTRAL TEXAS

CITY           SKY/WX    TMP DP  RH WIND       PRES   REMARKS
AUSTIN/BERGSTM CLOUDY    72  69  90 SE9       29.55S
WACO           CLOUDY    74  68  81 S14       29.60R
HILLSBORO        N/A     66  59  78 W39       29.65R THUNDER
TEMPLE         CLOUDY    73  57  56 SW5       29.61R
KILLEEN-GRAY   CLOUDY    73  65  77 VRB2      29.61R
FORT HOOD      CLOUDY    74  65  73 VRB2      29.61R
GEORGETOWN     CLOUDY    73  64  73 S10G21    29.54F
LAGO VISTA     CLOUDY    73  67  82 SE10G18   29.56F
SAN MARCOS     CLOUDY    72  70  94 SE13      29.55F
NEW BRAUNFELS  CLOUDY    73  71  93 SE9       29.53F FOG
RANDOLPH AFB   CLOUDY    73  73 100 SE8       29.55S FOG
SAN ANTONIO    CLOUDY    76  72  87 SE14      29.54R
STINSON        CLOUDY    77  74  90 SE13G18   29.51F FOG
PLEASANTON     NOT AVBL
LA GRANGE      CLOUDY    75  73  92 SE10      29.54S FOG
GIDDINGS       CLOUDY    72  69  89 S8        29.59S
$$

EAST TEXAS

CITY           SKY/WX    TMP DP  RH WIND       PRES   REMARKS
PARIS          CLOUDY    68  61  77 MISG      29.76R
CLARKSVILLE    NOT AVBL
TYLER          MOCLDY    74  66  76 E8        29.67R
LONGVIEW       MOCLDY    72  65  78 E6        29.68R
PALESTINE      MOCLDY    73  69  88 E8        29.65R
NACOGDOCHES    MOCLDY    72  66  83 SE7       29.67S
$$

TEXAS HILL COUNTRY AND EDWARDS PLATEAU

CITY           SKY/WX    TMP DP  RH WIND       PRES   REMARKS
LLANO          CLOUDY    75  72  88 E10       29.63R THUNDER FOG
HORSESHOE BAY  CLOUDY    73  70  89 SE5       29.57R
KERRVILLE      CLOUDY    71  60  67 NW26G41   29.68R
FREDERICKSBRG  TSTM      73  63  72 W22G33    29.71R
ROCKSPRINGS    LGT RAIN  61  52  72 NW8       29.72R
HONDO          MOCLDY    76  73  91 SE13      29.55S
UVALDE         CLOUDY    76  74  93 E9        29.52R FOG
DEL RIO        CLOUDY    70  48  45 N12G23    29.64R
$$

SOUTHEAST TEXAS

CITY           SKY/WX    TMP DP  RH WIND       PRES   REMARKS
COLLEGE STN    MOCLDY    73  67  81 SE8       29.59R
CALDWELL       PTCLDY    70  66  88 E6        29.60S
CROCKETT       NOT AVBL
BRENHAM        MOCLDY    73  68  84 SE10      29.57F
HUNTSVILLE     FAIR      73  70  90 E5        29.61F
CONROE         CLOUDY    73  70  90 SE10      29.61F FOG
HOUSTON BUSH   MOCLDY    74  72  93 SE8       29.61S
HOUSTON HOBBY  MOCLDY    74  71  91 SE3       29.61R
PERLAND        MOCLDY    75  72  90 SE7       29.62R
WHARTON        CLOUDY    74  73  96 SE8       29.60S FOG
$$

THE UPPER TEXAS COAST

CITY           SKY/WX    TMP DP  RH WIND       PRES   REMARKS
ORANGE         CLOUDY    76  72  88 E7        29.67S FOG
PORT ARTHUR    CLOUDY    76  73  91 E9        29.64S FOG
GALVESTON      CLOUDY    75  73  93 SE13      29.62F
ANGLETON       CLOUDY    73  72  96 SE8       29.59F
BAY CITY       CLOUDY    76  75  97 SE10      29.58F FOG
$$

TEXAS COASTAL BEND, RIO GRANDE PLAINS DEEP SOUTH TEXAS

CITY           SKY/WX    TMP DP  RH WIND       PRES   REMARKS
VICTORIA       CLOUDY    76  76 100 SE10      29.57F FOG
BEEVILLE       CLOUDY    77  77 100 SE12      29.53F FOG
ROCKPORT       FOG       77  75  93 SE15      29.54F VSB 1
PORT ARANSAS   FOG       75  75 100 SE12G17   29.55F VSB 1/2
PORT LAVACA    CLOUDY    75  75 100 SE14      29.57F FOG
CORPUS CHRISTI CLOUDY    78  76  93 SE12      29.55F FOG
KINGSVILLE NAS CLOUDY    80  79  96 SE13      29.54F FOG
COTULLA        CLOUDY    79  73  82 SE17G26   29.48F HAZE
LAREDO         MOCLDY    81  76  84 SE15      29.51F
BROWNSVILLE    CLOUDY    80  78  94 SE8       29.55F FOG
PORT ISABEL    CLOUDY    80  77  90 SE12      29.54F FOG
HEBBRONVILLE     N/A     79  77  94 SE7       29.54S FOG
MCALLEN        CLOUDY    81  77  88 SE9       29.54F FOG
WESLACO        CLOUDY    78  75  90 S6        29.54S FOG
FALFURRIAS     CLOUDY    79  77  92 SE7       29.53F
EDINBURG       CLOUDY    81  76  85 S8        29.54F HAZE
$$



USA.gov is the U.S. government's official web portal to all federal, state and local government web resources and services.